Fort Collins, CO

10:09 PM MST on December 09, 2019 (GMT -0700)
Fort Collins-Loveland Municipal

Weather History for KFNL - October, 2019

Change the Weather History Date:

Tuesday, October 22, 2019

  Actual Average Record
Temperature  
Mean Temperature 47 °F -  
Max Temperature 65 °F - 82 °F (2003)
Min Temperature 28 °F - 17 °F (1996)
Degree Days  
Heating Degree Days 18    
Month to date heating degree days 352  
Cooling Degree Days 0    
Month to date cooling degree days 0  
Moisture  
Dew Point 25 °F    
Average Humidity 53    
Maximum Humidity 85    
Minimum Humidity 20    
Precipitation  
Precipitation 0.00 in - 0.49 in (2015)
Snow  
Snow 0.00 in - - ()
Snow Depth 0.00 in    
Sea Level Pressure  
Sea Level Pressure 30.01 in    
Wind  
Wind Speed 6 mph (SSW)    
Max Wind Speed 10 mph    
Max Gust Speed 32 mph    
Visibility 10 miles    
Events      
T = Trace of Precipitation, MM = Missing Value Source: NWS Daily Summary

Daily Weather History Graph

Daily Weather History Graph

Search for Another Location

Airport or City:

Astronomy

Oct. 22, 2019 Rise Set
Actual Time 7:18 AM MDT 6:10 PM MDT
Civil Twilight 6:50 AM MDT 6:37 PM MDT
Nautical Twilight 6:18 AM MDT 7:09 PM MDT
Astronomical Twilight 5:47 AM MDT 7:41 PM MDT
Moon 12:29 AM MDT (10/22) 3:22 PM MDT (10/22)
Length of Visible Light 11h 47m
Length of Day
10h 51m
Last Quarter, 36% of the Moon is Illuminated
Oct 22
Last Quarter
Oct 27
New
Nov 4
First Quarter
Nov 12
Full
Nov 19
Last Quarter

Hourly Weather History & Observations

Time (MDT) Temp. Windchill Dew Point Humidity Pressure Visibility Wind Dir Wind Speed Gust Speed Precip Events Conditions
12:56 AM 37.0 °F 32.4 °F 26.1 °F 65% 30.14 in 10.0 mi West 5.8 mph - N/A   Clear
1:56 AM 35.1 °F 30.1 °F 26.1 °F 70% 30.14 in 10.0 mi WSW 5.8 mph - N/A   Clear
2:56 AM 36.0 °F - 25.0 °F 64% 30.14 in 10.0 mi Calm Calm - N/A   Partly Cloudy
3:56 AM 33.1 °F 26.9 °F 26.1 °F 75% 30.14 in 10.0 mi SW 6.9 mph - N/A   Clear
4:56 AM 28.9 °F 22.8 °F 24.1 °F 82% 30.14 in 10.0 mi SW 5.8 mph - N/A   Clear
5:56 AM 28.9 °F 21.9 °F 23.0 °F 78% 30.14 in 10.0 mi South 6.9 mph - N/A   Clear
6:56 AM 34.0 °F 31.0 °F 24.1 °F 67% 30.14 in 10.0 mi WSW 3.5 mph - N/A   Clear
7:56 AM 34.0 °F 31.0 °F 25.0 °F 70% 30.14 in 6.0 mi WSW 3.5 mph - N/A   Haze
8:56 AM 42.1 °F 39.2 °F 21.9 °F 45% 30.14 in 10.0 mi SE 4.6 mph - N/A   Clear
9:56 AM 46.0 °F 43.1 °F 21.9 °F 39% 30.11 in 10.0 mi South 5.8 mph - N/A   Clear
10:56 AM 51.1 °F - 23.0 °F 33% 30.07 in 10.0 mi SE 8.1 mph - N/A   Clear
11:56 AM 54.0 °F - 24.1 °F 31% 30.03 in 10.0 mi SSW 9.2 mph - N/A   Clear
12:56 PM 57.9 °F - 21.9 °F 25% 29.98 in 10.0 mi SSE 9.2 mph - N/A   Clear
1:56 PM 61.0 °F - 24.1 °F 24% 29.94 in 10.0 mi Variable 4.6 mph - N/A   Clear
2:56 PM 64.0 °F - 23.0 °F 21% 29.91 in 10.0 mi North 5.8 mph - N/A   Clear
3:56 PM 63.0 °F - 27.0 °F 26% 29.92 in 10.0 mi East 10.4 mph - N/A   Scattered Clouds
4:56 PM 61.0 °F - 27.0 °F 27% 29.92 in 10.0 mi Calm Calm - N/A   Scattered Clouds
5:56 PM 57.0 °F - 27.0 °F 32% 29.93 in 10.0 mi SSE 6.9 mph - N/A   Partly Cloudy
6:56 PM 57.0 °F - 28.9 °F 34% 29.90 in 10.0 mi SW 3.5 mph - N/A   Partly Cloudy
7:56 PM 54.0 °F - 28.9 °F 38% 29.89 in 10.0 mi SSW 9.2 mph - N/A   Clear
8:56 PM 57.0 °F - 27.0 °F 32% 29.86 in 10.0 mi WNW 10.4 mph 32.2 mph N/A   Clear
9:56 PM 57.0 °F - 24.1 °F 28% 29.84 in 10.0 mi East 4.6 mph - N/A   Clear
10:56 PM 55.9 °F - 23.0 °F 28% 29.83 in 10.0 mi NE 3.5 mph - N/A   Clear
11:56 PM 48.9 °F - 27.0 °F 43% 29.84 in 10.0 mi South 9.2 mph - N/A   Clear